Burlington, IA

10:24 PM CDT on May 24, 2018 (GMT -0500)
Burlington Regional

Weather History for KBRL - December, 2012

Change the Weather History Date:

Sunday, December 16, 2012

  Actual Average Record
Temperature  
Mean Temperature 43 °F 28 °F  
Max Temperature 48 °F 37 °F 59 °F (2006)
Min Temperature 37 °F 21 °F -13 °F (1951)
Degree Days  
Heating Degree Days 22 36  
Month to date heating degree days 372 542  
Since 1 July heating degree days 1611 1615  
Cooling Degree Days 0 0  
Month to date cooling degree days 0 0  
Year to date cooling degree days 1287 1207  
Moisture  
Dew Point 36 °F    
Average Humidity 84    
Maximum Humidity 89    
Minimum Humidity 79    
Precipitation  
Precipitation 0.00 in 0.07 in 0.05 in (1999)
Month to date precipitation 0.82 1.18  
Year to date precipitation 23.21 37.57  
Sea Level Pressure  
Sea Level Pressure 29.71 in    
Wind  
Wind Speed 6 mph (WNW)    
Max Wind Speed 15 mph    
Max Gust Speed 20 mph    
Visibility 9 miles    
Events      
T = Trace of Precipitation, MM = Missing Value Source: NWS Daily Summary

Daily Weather History Graph

Daily Weather History Graph

Search for Another Location

Airport or City:

Astronomy

Dec. 16, 2012 Rise Set
Actual Time 7:22 AM CST 4:38 PM CST
Civil Twilight 6:51 AM CST 5:09 PM CST
Nautical Twilight 6:17 AM CST 5:43 PM CST
Astronomical Twilight 5:43 AM CST 6:17 PM CST
Moon 9:55 AM CST (12/16) 8:54 PM CST (12/16)
Length of Visible Light 10h 17m
Length of Day
9h 15m
Waxing Crescent, 16% of the Moon is Illuminated
Dec 16
Waxing Crescent
Dec 19
First Quarter
Dec 28
Full
Jan 4
Last Quarter
Jan 11
New

Hourly Weather History & Observations

Time (CST) Temp. Windchill Dew Point Humidity Pressure Visibility Wind Dir Wind Speed Gust Speed Precip Events Conditions
12:04 AM 48.2 °F - 42.8 °F 82% 29.62 in 10.0 mi WSW 10.4 mph - N/A   Overcast
12:16 AM 48.2 °F - 42.8 °F 82% 29.62 in 10.0 mi WSW 9.2 mph - N/A   Overcast
12:53 AM 48.0 °F - 43.0 °F 83% 29.63 in 10.0 mi West 9.2 mph - N/A   Overcast
1:53 AM 46.4 °F 41.5 °F 41.0 °F 81% 29.63 in 10.0 mi West 10.4 mph 19.6 mph N/A   Overcast
2:20 AM 44.6 °F 39.7 °F 41.0 °F 87% 29.64 in 9.0 mi West 9.2 mph - N/A   Overcast
2:53 AM 45.0 °F 39.7 °F 39.9 °F 82% 29.65 in 8.0 mi West 10.4 mph - N/A   Overcast
3:53 AM 43.0 °F 38.2 °F 39.0 °F 86% 29.65 in 7.0 mi West 8.1 mph - N/A   Overcast
4:53 AM 42.1 °F 37.1 °F 37.9 °F 85% 29.67 in 7.0 mi WNW 8.1 mph - N/A   Overcast
5:53 AM 41.0 °F 35.8 °F 37.0 °F 86% 29.69 in 7.0 mi WNW 8.1 mph - N/A   Overcast
6:42 AM 39.2 °F 34.2 °F 35.6 °F 87% 29.70 in 10.0 mi West 6.9 mph - N/A   Overcast
6:53 AM 39.9 °F 35.1 °F 35.1 °F 83% 29.70 in 10.0 mi West 6.9 mph - N/A   Overcast
7:38 AM 39.2 °F 35.0 °F 35.6 °F 87% 29.70 in 8.0 mi West 5.8 mph - N/A   Overcast
7:50 AM 39.2 °F 34.2 °F 33.8 °F 81% 29.70 in 8.0 mi WNW 6.9 mph - N/A   Overcast
7:53 AM 39.0 °F 32.8 °F 34.0 °F 82% 29.71 in 7.0 mi WNW 9.2 mph - N/A   Overcast
8:53 AM 39.0 °F 34.0 °F 35.1 °F 86% 29.74 in 8.0 mi West 6.9 mph - N/A   Overcast
9:53 AM 39.0 °F 32.8 °F 34.0 °F 82% 29.75 in 7.0 mi West 9.2 mph - N/A   Overcast
10:53 AM 39.9 °F 33.9 °F 34.0 °F 79% 29.73 in 9.0 mi WNW 9.2 mph - N/A   Overcast
11:53 AM 39.9 °F 35.1 °F 34.0 °F 79% 29.72 in 10.0 mi WNW 6.9 mph - N/A   Overcast
12:53 PM 39.9 °F 34.5 °F 34.0 °F 79% 29.70 in 9.0 mi NW 8.1 mph - N/A   Overcast
1:38 PM 39.2 °F 33.6 °F 33.8 °F 81% 29.69 in 7.0 mi NW 8.1 mph - N/A   Overcast
1:53 PM 39.0 °F 32.3 °F 34.0 °F 82% 29.70 in 7.0 mi NW 10.4 mph - N/A   Overcast
2:53 PM 39.0 °F 32.8 °F 34.0 °F 82% 29.69 in 6.0 mi North 9.2 mph - N/A   Haze
3:53 PM 37.4 °F 32.8 °F 33.8 °F 87% 29.70 in 10.0 mi NW 5.8 mph - N/A   Overcast
4:53 PM 37.9 °F 34.4 °F 34.0 °F 86% 29.74 in 10.0 mi West 4.6 mph - N/A   Overcast
5:53 PM 37.9 °F - 34.0 °F 86% 29.76 in 10.0 mi Calm Calm - N/A   Overcast
6:53 PM 37.9 °F - 34.0 °F 86% 29.76 in 9.0 mi Calm Calm - N/A   Overcast
7:53 PM 37.9 °F 35.5 °F 33.1 °F 83% 29.78 in 10.0 mi WNW 3.5 mph - N/A   Overcast
8:17 PM 37.4 °F 32.1 °F 33.8 °F 87% 29.76 in 10.0 mi NNW 6.9 mph - N/A   Overcast
8:53 PM 37.9 °F 35.5 °F 33.1 °F 83% 29.78 in 10.0 mi WNW 3.5 mph - N/A   Overcast
9:53 PM 37.9 °F - 33.1 °F 83% 29.78 in 10.0 mi Calm Calm - N/A   Overcast
10:53 PM 37.0 °F 33.3 °F 33.1 °F 86% 29.78 in 10.0 mi NNW 4.6 mph - N/A   Overcast
11:53 PM 37.0 °F - 30.9 °F 79% 29.78 in 10.0 mi Calm Calm - N/A   Overcast